Weather History for Shreveport Downtown, LA

Change the Weather History Date:

Wednesday, November 9, 2011

  Actual Average (KSHV) Record (KSHV)
Temperature  
Mean Temperature 54 °F 59 °F  
Max Temperature 61 °F 70 °F 85 °F (1994)
Min Temperature 48 °F 47 °F 23 °F (1991)
Degree Days  
Heating Degree Days 10 8  
Month to date heating degree days 58  
Since 1 July heating degree days 144  
Cooling Degree Days 0 1  
Month to date cooling degree days 13  
Year to date cooling degree days 2462  
Growing Degree Days 4 (Base 50)    
Moisture  
Dew Point 40 °F    
Average Humidity 62    
Maximum Humidity 86    
Minimum Humidity 41    
Precipitation  
Precipitation 0.00 in 0.14 in 3.28 in (1990)
Month to date precipitation 1.40  
Year to date precipitation 43.51  
Snow  
Snow 0.00 in - - ()
Month to date snowfall  
Since 1 July snowfall  
Since 1 September snowfall  
Snow Depth -    
Sea Level Pressure  
Sea Level Pressure 30.21 in    
Wind  
Wind Speed 8 mph (NW)    
Max Wind Speed 14 mph    
Max Gust Speed 24 mph    
Visibility 10 miles    
Events      
T = Trace of Precipitation, MM = Missing Value Source: NWS Daily Summary

Daily Weather History Graph

Daily Weather History Graph

Search for Another Location

Airport:

Trip Planner

Search our weather history database for the weather conditions in past years. The results will help you decide how hot, cold, wet, or windy it might be!

Date:

Astronomy

Nov. 09, 2011 Rise Set
Actual Time 6:39 AM CST 5:18 PM CST
Civil Twilight 6:13 AM CST 5:43 PM CST
Nautical Twilight 5:43 AM CST 6:13 PM CST
Astronomical Twilight 5:14 AM CST 6:42 PM CST
Moon 4:31 PM CST (11/9) 5:35 AM CST (11/9)
Length of Visible Light 11h 30m
Length of Day
10h 38m
Waxing Gibbous, 99% of the Moon is Illuminated
Nov 9
Waxing Gibbous
Nov 10
Full
Nov 18
Last Quarter
Nov 25
New
Dec 2
First Quarter

Hourly Weather History & Observations

Time (CST) Temp. Dew Point Humidity Pressure Visibility Wind Dir Wind Speed Gust Speed Precip Events Conditions
12:53 AM 54.0 °F 48.9 °F 83% 30.05 in 10.0 mi WNW 4.6 mph - N/A   Clear
1:53 AM 53.1 °F 48.9 °F 86% 30.06 in 10.0 mi West 3.5 mph - N/A   Clear
2:53 AM 52.0 °F 48.0 °F 86% 30.08 in 10.0 mi WNW 5.8 mph - N/A   Clear
3:53 AM 51.1 °F 46.9 °F 86% 30.10 in 10.0 mi NW 11.5 mph - N/A   Clear
4:53 AM 50.0 °F 45.0 °F 83% 30.12 in 10.0 mi NW 9.2 mph - N/A   Clear
6:53 AM 48.0 °F 43.0 °F 83% 30.17 in 10.0 mi WNW 10.4 mph 19.6 mph N/A   Clear
8:53 AM 50.0 °F 41.0 °F 71% 30.22 in 10.0 mi NNW 13.8 mph 23.0 mph N/A   Clear
9:53 AM 52.0 °F 41.0 °F 66% 30.24 in 10.0 mi NNW 12.7 mph 24.2 mph N/A   Partly Cloudy
10:53 AM 55.0 °F 41.0 °F 59% 30.25 in 10.0 mi NNW 9.2 mph - N/A   Clear
11:53 AM 57.0 °F 39.9 °F 53% 30.23 in 10.0 mi North 13.8 mph 21.9 mph N/A   Clear
12:53 PM 60.1 °F 41.0 °F 49% 30.21 in 10.0 mi North 11.5 mph - N/A   Clear
1:53 PM 60.1 °F 39.0 °F 46% 30.21 in 10.0 mi NNW 12.7 mph 19.6 mph N/A   Clear
2:53 PM 61.0 °F 39.0 °F 44% 30.20 in 10.0 mi NNW 9.2 mph 19.6 mph N/A   Clear
3:53 PM 61.0 °F 37.0 °F 41% 30.20 in 10.0 mi NNW 10.4 mph 18.4 mph N/A   Clear
4:53 PM 60.1 °F 36.0 °F 41% 30.22 in 10.0 mi NNW 6.9 mph - N/A   Clear
5:53 PM 55.9 °F 37.0 °F 49% 30.24 in 10.0 mi NNW 4.6 mph - N/A   Clear
6:53 PM 54.0 °F 36.0 °F 51% 30.26 in 10.0 mi NNW 4.6 mph - N/A   Clear
7:53 PM 52.0 °F 35.1 °F 53% 30.28 in 10.0 mi NNW 4.6 mph - N/A   Clear
8:53 PM 50.0 °F 35.1 °F 57% 30.31 in 10.0 mi NW 3.5 mph - N/A   Clear
9:53 PM 48.9 °F 35.1 °F 59% 30.32 in 10.0 mi NW 3.5 mph - N/A   Clear
10:53 PM 48.9 °F 34.0 °F 56% 30.33 in 10.0 mi NNW 5.8 mph - N/A   Clear
11:53 PM 48.0 °F 34.0 °F 58% 30.33 in 10.0 mi NNW 3.5 mph - N/A   Clear